Darstellungsparameter: Aktuell verwendete Einstellungen:
Skalierung der Graphiken ... ?
xyx+y,   Skalierungsfaktor:      Skalierung: Modus: x, Faktor: 1
Darstellungszeitraum ... ?
Vom - - bis: - -   Zeitraum: 25.04.2016 - 24.04.2017
Min/Max/Avg-Anzeige ... ?
Zeige MMA aktuell
Zeige MMA Monat
Zeige MMA alles
Zeige --A aktuell
Zeige --A Monat
Zeige --A alles
Keine MMA-Anzeige
MMA:
Keine MMA-Graphiken
MMA-Basis: 25.04.2016 - 24.04.2017
Quicknavigation für Darstellung... ?
Tage:      1T, 2T, 3T, 5T -1T -2T -3T -5T +1T +2T +3T +5T
Wochen: 1W, 2W, 3W -1W -2W -3W +1W +2W +3W
Monate: 1M, 3M, 6M -1M -3M -6M +1M +3M +6M
Jahre:    1J, 3J, 5J, 10J -1J -3J -5J -10J +1J +3J +5J +10J
Nutze für die Darstellung ... ?
Originaldaten oder ...
Mittelwerte Minima Maxima auf...
Stundenbasis Tagesbasis Wochenbasis
Monatsbasis Jahresbasis      Datenbasis: Mittelwerte auf Tagesbasis
Darstellen als:
Statistik (Auto) Statistik J:M      Darstellung:
Zur Graphik,    zurück zur Übersicht aller Sensoren.
 
Tabellarische Datenbersicht: ?
 
Sensor: Nr:Datum:Temp:Feuchte:
Aussen-T/F 1 25-04-2016 00:00:00 4.0775 C 43.0917 %
2 26-04-2016 00:00:00 4.38 C 39.0417 %
3 27-04-2016 00:00:00 5.32667 C 23.8250 %
4 28-04-2016 00:00:00 6.70333 C 30.5583 %
5 29-04-2016 00:00:00 7.80583 C 30.1000 %
6 30-04-2016 00:00:00 7.91583 C 30.9333 %
7 01-05-2016 00:00:00 10.01083 C 35.3833 %
8 02-05-2016 00:00:00 10.51083 C 42.4750 %
9 03-05-2016 00:00:00 11.25917 C 31.6333 %
10 04-05-2016 00:00:00 9.2375 C 32.9917 %
11 05-05-2016 00:00:00 11.535 C 29.8083 %
12 06-05-2016 00:00:00 15.30667 C 31.8167 %
13 07-05-2016 00:00:00 17.3 C 30.4750 %
14 08-05-2016 00:00:00 18.64833 C 20.2833 %
15 09-05-2016 00:00:00 18.325 C 21.9833 %
16 10-05-2016 00:00:00 17.15833 C 26.3000 %
17 11-05-2016 00:00:00 17.9975 C 38.7333 %
18 12-05-2016 00:00:00 18.35667 C 21.6500 %
19 13-05-2016 00:00:00 14.43917 C 42.0583 %
20 14-05-2016 00:00:00 10.66167 C 30.2500 %
21 15-05-2016 00:00:00 9.19333 C 21.1750 %
22 16-05-2016 00:00:00 10.65167 C 22.1667 %
23 17-05-2016 00:00:00 13.08417 C 23.7167 %
24 18-05-2016 00:00:00 15.07 C 26.4167 %
25 19-05-2016 00:00:00 14.705 C 31.9083 %
Sensor: Nr:Datum:Temp:Feuchte:
Aussen-T/F 26 20-05-2016 00:00:00 14.36917 C 27.7333 %
27 21-05-2016 00:00:00 18.82083 C 30.1667 %
28 22-05-2016 00:00:00 19.6125 C 26.3750 %
29 23-05-2016 00:00:00 14.36417 C 28.3667 %
30 24-05-2016 00:00:00 11.07083 C 39.1667 %
31 25-05-2016 00:00:00 13.16083 C 39.4917 %
32 26-05-2016 00:00:00 15.82333 C 37.5500 %
33 27-05-2016 00:00:00 17.00333 C 47.2000 %
34 28-05-2016 00:00:00 17.40167 C 48.0833 %
35 29-05-2016 00:00:00 18.06417 C 41.2500 %
36 30-05-2016 00:00:00 17.56333 C 48.6833 %
37 31-05-2016 00:00:00 16.76452 C 37.3387 %
38 01-06-2016 00:00:00 15.94792 C 43.6458 %
39 02-06-2016 00:00:00 17.97014 C 45.8819 %
40 03-06-2016 00:00:00 16.98542 C 47.4514 %
41 04-06-2016 00:00:00 18.03125 C 41.6979 %
42 05-06-2016 00:00:00 19.83507 C 41.0556 %
43 06-06-2016 00:00:00 19.82222 C 34.2014 %
44 07-06-2016 00:00:00 21.12847 C 28.7604 %
45 08-06-2016 00:00:00 20.43993 C 25.7188 %
46 09-06-2016 00:00:00 18.36771 C 23.1875 %
47 10-06-2016 00:00:00 18.63125 C 23.3715 %
48 11-06-2016 00:00:00 18.52465 C 22.4410 %
49 12-06-2016 00:00:00 17.77604 C 31.9792 %
50 13-06-2016 00:00:00 15.89306 C 47.6493 %
Sensor: Nr:Datum:Temp:Feuchte:
Aussen-T/F 51 14-06-2016 00:00:00 16.98229 C 36.8542 %
52 15-06-2016 00:00:00 15.80937 C 33.7951 %
53 16-06-2016 00:00:00 14.31493 C 43.6597 %
54 17-06-2016 00:00:00 14.91493 C 39.4757 %
55 18-06-2016 00:00:00 15.14896 C 40.0104 %
56 19-06-2016 00:00:00 16.51979 C 24.7535 %
57 20-06-2016 00:00:00 11.56903 C 28.5044 %
58 21-06-2016 00:00:00 18.65833 C 35.7667 %
59 22-06-2016 00:00:00 21.28833 C 37.0667 %
60 23-06-2016 00:00:00 24.72417 C 30.6083 %
61 24-06-2016 00:00:00 22.49417 C 33.0667 %
62 25-06-2016 00:00:00 16.69 C 56.2917 %
63 26-06-2016 00:00:00 15.84 C 41.2917 %
64 27-06-2016 00:00:00 16.38083 C 29.8417 %
65 28-06-2016 00:00:00 18.94333 C 36.5667 %
66 29-06-2016 00:00:00 19.7075 C 23.8250 %
67 30-06-2016 00:00:00 19.33333 C 24.7167 %
68 01-07-2016 00:00:00 20.47833 C 25.5250 %
69 02-07-2016 00:00:00 17.3875 C 25.1167 %
70 03-07-2016 00:00:00 15.7475 C 25.1667 %
71 04-07-2016 00:00:00 18.435 C 26.2833 %
72 05-07-2016 00:00:00 19.94667 C 23.7917 %
73 06-07-2016 00:00:00 17.5575 C 24.4167 %
74 07-07-2016 00:00:00 17.9175 C 26.9333 %
75 08-07-2016 00:00:00 19.34833 C 26.2250 %
Sensor: Nr:Datum:Temp:Feuchte:
Aussen-T/F 76 09-07-2016 00:00:00 21.7525 C 22.1750 %
77 10-07-2016 00:00:00 22.6725 C 26.1833 %
78 11-07-2016 00:00:00 22.19583 C 23.5083 %
79 12-07-2016 00:00:00 19.9525 C 24.3500 %
80 13-07-2016 00:00:00 15.24 C 37.0917 %
81 14-07-2016 00:00:00 15.65 C 34.8167 %
82 15-07-2016 00:00:00 16.855 C 23.0750 %
83 16-07-2016 00:00:00 17.50333 C 26.4917 %
84 17-07-2016 00:00:00 21.88917 C 26.5250 %
85 18-07-2016 00:00:00 22.8375 C 27.4083 %
86 19-07-2016 00:00:00 22.66917 C 25.7000 %
87 20-07-2016 00:00:00 24.1625 C 25.4250 %
88 21-07-2016 00:00:00 21.46167 C 33.7500 %
89 22-07-2016 00:00:00 21.44167 C 39.8500 %
90 23-07-2016 00:00:00 20.57167 C 37.5917 %
91 24-07-2016 00:00:00 22.89083 C 37.5500 %
92 25-07-2016 00:00:00 22.56417 C 25.9000 %
93 26-07-2016 00:00:00 20.86333 C 26.3667 %
94 27-07-2016 00:00:00 20.36667 C 26.3583 %
95 28-07-2016 00:00:00 21.32 C 23.3917 %
96 29-07-2016 00:00:00 20.3725 C 27.6167 %
97 30-07-2016 00:00:00 21.31667 C 25.1000 %
98 31-07-2016 00:00:00 19.395 C 24.8500 %
99 01-08-2016 00:00:00 17.6775 C 27.5167 %
100 02-08-2016 00:00:00 16.10333 C 37.3833 %
Sensor: Nr:Datum:Temp:Feuchte:
Aussen-T/F 101 03-08-2016 00:00:00 18.46667 C 38.4083 %
102 04-08-2016 00:00:00 17.91417 C 46.6333 %
103 05-08-2016 00:00:00 16.71833 C 33.8500 %
104 06-08-2016 00:00:00 18.14583 C 31.5833 %
105 07-08-2016 00:00:00 19.73 C 30.8917 %
106 08-08-2016 00:00:00 19.59083 C 23.6917 %
107 09-08-2016 00:00:00 17.05833 C 22.3000 %
108 10-08-2016 00:00:00 13.89917 C 26.0167 %
109 11-08-2016 00:00:00 12.59832 C 32.7059 %
110 12-08-2016 00:00:00 17.455 C 33.2250 %
111 13-08-2016 00:00:00 21.15833 C 31.2167 %
112 14-08-2016 00:00:00 19.95 C 30.1750 %
113 15-08-2016 00:00:00 19.69667 C 27.2250 %
114 16-08-2016 00:00:00 18.98167 C 26.7333 %
115 17-08-2016 00:00:00 18.93333 C 25.7417 %
116 18-08-2016 00:00:00 17.52 C 26.5500 %
117 19-08-2016 00:00:00 19.7325 C 28.2667 %
118 20-08-2016 00:00:00 19.64167 C 27.2333 %
119 21-08-2016 00:00:00 17.60333 C 26.8583 %
120 22-08-2016 00:00:00 17.8025 C 27.1750 %
121 23-08-2016 00:00:00 19.51 C 30.9333 %
122 24-08-2016 00:00:00 20.755 C 28.3583 %
123 25-08-2016 00:00:00 21.70333 C 28.8500 %
124 26-08-2016 00:00:00 22.62333 C 27.2417 %
125 27-08-2016 00:00:00 24.03 C 28.2583 %
Sensor: Nr:Datum:Temp:Feuchte:
Aussen-T/F 126 28-08-2016 00:00:00 23.51417 C 25.0417 %
127 29-08-2016 00:00:00 19.5725 C 24.0250 %
128 30-08-2016 00:00:00 18.9625 C 29.8667 %
129 31-08-2016 00:00:00 18.09833 C 24.6000 %
130 01-09-2016 00:00:00 19.885 C 25.6167 %
131 02-09-2016 00:00:00 18.95833 C 28.4750 %
132 03-09-2016 00:00:00 21.2725 C 24.6250 %
133 04-09-2016 00:00:00 18.2375 C 25.8750 %
134 05-09-2016 00:00:00 18.54917 C 25.8167 %
135 06-09-2016 00:00:00 16.93333 C 34.4917 %
136 07-09-2016 00:00:00 17.405 C 33.5750 %
137 08-09-2016 00:00:00 19.405 C 32.5083 %
138 09-09-2016 00:00:00 20.46333 C 21.3833 %
139 10-09-2016 00:00:00 19.22583 C 28.1083 %
140 11-09-2016 00:00:00 19.21667 C 26.7417 %
141 12-09-2016 00:00:00 19.5625 C 29.1333 %
142 13-09-2016 00:00:00 21.00833 C 29.4083 %
143 14-09-2016 00:00:00 20.675 C 27.7083 %
144 15-09-2016 00:00:00 19.8875 C 25.4083 %
145 16-09-2016 00:00:00 17.43917 C 39.9167 %
146 17-09-2016 00:00:00 15.91333 C 35.6083 %
147 18-09-2016 00:00:00 17.29167 C 42.7083 %
148 19-09-2016 00:00:00 15.64833 C 27.5250 %
149 20-09-2016 00:00:00 15.07833 C 30.5000 %
150 21-09-2016 00:00:00 13.86667 C 27.4167 %
Sensor: Nr:Datum:Temp:Feuchte:
Aussen-T/F 151 22-09-2016 00:00:00 11.25083 C 34.2583 %
152 23-09-2016 00:00:00 13.09417 C 32.6000 %
153 24-09-2016 00:00:00 13.36667 C 40.9167 %
154 25-09-2016 00:00:00 13.76917 C 38.9417 %
155 26-09-2016 00:00:00 14.44333 C 39.0333 %
156 27-09-2016 00:00:00 13.11333 C 52.0083 %
157 28-09-2016 00:00:00 15.245 C 38.0583 %
158 29-09-2016 00:00:00 18.65167 C 25.3417 %
159 30-09-2016 00:00:00 15.06167 C 29.6500 %
160 01-10-2016 00:00:00 13.58917 C 51.5333 %
161 02-10-2016 00:00:00 12.33333 C 43.2667 %
162 03-10-2016 00:00:00 12.23083 C 37.2000 %
163 04-10-2016 00:00:00 11.06833 C 47.8083 %
164 05-10-2016 00:00:00 8.02083 C 40.7917 %
165 06-10-2016 00:00:00 7.89917 C 32.8250 %
166 07-10-2016 00:00:00 10.76917 C 41.6833 %
167 08-10-2016 00:00:00 9.0625 C 53.2250 %
168 09-10-2016 00:00:00 8.21917 C 43.8417 %
169 10-10-2016 00:00:00 6.4375 C 44.8333 %
170 11-10-2016 00:00:00 7.66667 C 44.1250 %
171 12-10-2016 00:00:00 8.5225 C 34.6417 %
172 13-10-2016 00:00:00 7.0825 C 42.1917 %
173 14-10-2016 00:00:00 9.04333 C 34.3583 %
174 15-10-2016 00:00:00 10.78083 C 44.4417 %
175 16-10-2016 00:00:00 8.045 C 54.9250 %
Sensor: Nr:Datum:Temp:Feuchte:
Aussen-T/F 176 17-10-2016 00:00:00 10.0225 C 63.0667 %
177 18-10-2016 00:00:00 10.67917 C 47.8917 %
178 19-10-2016 00:00:00 8.77083 C 33.0917 %
179 20-10-2016 00:00:00 7.5975 C 52.8000 %
180 21-10-2016 00:00:00 7.21667 C 51.6083 %
181 22-10-2016 00:00:00 7.28167 C 49.5250 %
182 23-10-2016 00:00:00 6.66083 C 50.6500 %
183 24-10-2016 00:00:00 8.92167 C 63.3000 %
184 25-10-2016 00:00:00 11.005 C 51.3333 %
185 26-10-2016 00:00:00 8.985 C 42.9167 %
186 27-10-2016 00:00:00 8.2675 C 50.5250 %
187 28-10-2016 00:00:00 11.03667 C 37.9750 %
188 29-10-2016 00:00:00 11.12583 C 38.1417 %
189 30-10-2016 00:00:00 7.1712 C 54.7680 %
190 31-10-2016 00:00:00 6.11333 C 61.1167 %
191 01-11-2016 00:00:00 6.55083 C 60.1167 %
192 02-11-2016 00:00:00 6.48667 C 37.7417 %
193 03-11-2016 00:00:00 5.62917 C 36.2750 %
194 04-11-2016 00:00:00 4.18583 C 57.1667 %
195 05-11-2016 00:00:00 6.1875 C 59.2417 %
196 06-11-2016 00:00:00 4.91833 C 30.0917 %
197 07-11-2016 00:00:00 3.88333 C 40.0667 %
198 08-11-2016 00:00:00 2.37583 C 46.3750 %
199 09-11-2016 00:00:00 2.99583 C 53.2667 %
200 10-11-2016 00:00:00 4.55333 C 50.0000 %
Sensor: Nr:Datum:Temp:Feuchte:
Aussen-T/F 201 11-11-2016 00:00:00 4.3825 C 59.9250 %
202 12-11-2016 00:00:00 1.26417 C 47.5333 %
203 13-11-2016 00:00:00 1.32333 C 37.8333 %
204 14-11-2016 00:00:00 -1.67833 C 46.0917 %
205 15-11-2016 00:00:00 3.8725 C 39.5000 %
206 16-11-2016 00:00:00 9.1725 C 50.0750 %
207 17-11-2016 00:00:00 10.28167 C 32.9917 %
208 18-11-2016 00:00:00 8.59583 C 26.5250 %
209 19-11-2016 00:00:00 4.45417 C 39.7333 %
210 20-11-2016 00:00:00 8.31583 C 26.6583 %
211 21-11-2016 00:00:00 9.31917 C 45.5333 %
212 22-11-2016 00:00:00 9.50167 C 52.0583 %
213 23-11-2016 00:00:00 7.95417 C 67.0083 %
214 24-11-2016 00:00:00 7.5675 C 53.7583 %
215 25-11-2016 00:00:00 7.12917 C 22.5167 %
216 26-11-2016 00:00:00 6.3675 C 25.9417 %
217 27-11-2016 00:00:00 4.2 C 40.8667 %
218 28-11-2016 00:00:00 -1.0125 C 46.3583 %
219 29-11-2016 00:00:00 -4.42 C 35.8000 %
220 30-11-2016 00:00:00 -4.23833 C 36.9833 %
221 01-12-2016 00:00:00 2.62667 C 21.5583 %
222 02-12-2016 00:00:00 4.245 C 43.0250 %
223 03-12-2016 00:00:00 -0.60083 C 60.1250 %
224 04-12-2016 00:00:00 -3.84417 C 47.8167 %
225 05-12-2016 00:00:00 -5.46833 C 44.0333 %
Sensor: Nr:Datum:Temp:Feuchte:
Aussen-T/F 226 06-12-2016 00:00:00 -4.63417 C 45.9417 %
227 07-12-2016 00:00:00 -1.23 C 55.7333 %
228 08-12-2016 00:00:00 -0.39583 C 54.6667 %
229 09-12-2016 00:00:00 5.92583 C 21.0417 %
230 10-12-2016 00:00:00 3.77833 C 40.4750 %
231 11-12-2016 00:00:00 7.3925 C 25.0750 %
232 12-12-2016 00:00:00 5.93583 C 39.9833 %
233 13-12-2016 00:00:00 3.34583 C 65.2250 %
234 14-12-2016 00:00:00 5.935 C 48.1167 %
235 15-12-2016 00:00:00 6.37417 C 39.5917 %
236 16-12-2016 00:00:00 4.1375 C 22.6833 %
237 17-12-2016 00:00:00 3.35083 C 34.1750 %
238 18-12-2016 00:00:00 4.61167 C 41.6167 %
239 19-12-2016 00:00:00 3.69083 C 40.5917 %
240 20-12-2016 00:00:00 -0.2625 C 40.4500 %
241 21-12-2016 00:00:00 1.50833 C 37.0917 %
242 22-12-2016 00:00:00 3.135 C 42.5833 %
243 23-12-2016 00:00:00 3.4975 C 50.4417 %
244 24-12-2016 00:00:00 6.43833 C 23.7750 %
245 25-12-2016 00:00:00 7.98083 C 27.9917 %
246 26-12-2016 00:00:00 6.85083 C 28.5167 %
247 27-12-2016 00:00:00 3.36083 C 31.3417 %
248 28-12-2016 00:00:00 2.765 C 32.3750 %
249 29-12-2016 00:00:00 -2.31583 C 49.4333 %
250 30-12-2016 00:00:00 -2.7975 C 45.7583 %
Sensor: Nr:Datum:Temp:Feuchte:
Aussen-T/F 251 31-12-2016 00:00:00 -4.97167 C 40.1167 %
252 01-01-2017 00:00:00 -2.645 C 37.8583 %
253 02-01-2017 00:00:00 -0.26417 C 43.1250 %
254 03-01-2017 00:00:00 0.27717 C 59.5652 %
255 04-01-2017 00:00:00 2.4725 C 33.8417 %
256 05-01-2017 00:00:00 -1.62667 C 32.9833 %
257 06-01-2017 00:00:00 -8.04417 C 33.4250 %
258 07-01-2017 00:00:00 -5.00833 C 28.8833 %
259 08-01-2017 00:00:00 -0.27333 C 48.8667 %
260 09-01-2017 00:00:00 1.305 C 49.9167 %
261 10-01-2017 00:00:00 0.33833 C 54.5917 %
262 11-01-2017 00:00:00 2.7675 C 49.3083 %
263 12-01-2017 00:00:00 3.39 C 26.6583 %
264 13-01-2017 00:00:00 1.16833 C 32.4417 %
265 14-01-2017 00:00:00 1.5625 C 26.2083 %
266 15-01-2017 00:00:00 -0.2875 C 38.9417 %
267 16-01-2017 00:00:00 -2.95333 C 40.8917 %
268 17-01-2017 00:00:00 -5.14333 C 33.6917 %
269 18-01-2017 00:00:00 -7.12917 C 33.7333 %
270 19-01-2017 00:00:00 -8.02917 C 34.5500 %
271 20-01-2017 00:00:00 -8.47167 C 31.5833 %
272 21-01-2017 00:00:00 -7.91167 C 34.8083 %
273 22-01-2017 00:00:00 -9.46417 C 33.6583 %
274 23-01-2017 00:00:00 -6.45667 C 35.5667 %
275 24-01-2017 00:00:00 -1.59917 C 36.1417 %
Sensor: Nr:Datum:Temp:Feuchte:
Aussen-T/F 276 25-01-2017 00:00:00 -2.06134 C 21.1008 %
277 26-01-2017 00:00:00 -3.27167 C 23.9917 %
278 27-01-2017 00:00:00 -4.87833 C 33.7583 %
279 28-01-2017 00:00:00 -3.13417 C 35.4000 %
280 29-01-2017 00:00:00 1.74917 C 38.4417 %
281 30-01-2017 00:00:00 3.64583 C 50.8083 %
282 31-01-2017 00:00:00 2.45083 C 33.8167 %
283 01-02-2017 00:00:00 2.82417 C 29.1583 %
284 02-02-2017 00:00:00 3.84417 C 50.3250 %
285 03-02-2017 00:00:00 4.79833 C 53.5417 %
286 04-02-2017 00:00:00 4.85833 C 34.5500 %
287 05-02-2017 00:00:00 3.81333 C 37.2333 %
288 06-02-2017 00:00:00 2.905 C 39.3000 %
289 07-02-2017 00:00:00 3.68333 C 32.7000 %
290 08-02-2017 00:00:00 2.47583 C 26.7500 %
291 09-02-2017 00:00:00 -0.87083 C 28.4083 %
292 10-02-2017 00:00:00 0.07583 C 21.2250 %
293 11-02-2017 00:00:00 1.1675 C 39.9583 %
294 12-02-2017 00:00:00 1.77167 C 49.6917 %
295 13-02-2017 00:00:00 2.44917 C 24.7083 %
296 14-02-2017 00:00:00 0.02083 C 31.7250 %
297 15-02-2017 00:00:00 0.65333 C 38.4083 %
298 16-02-2017 00:00:00 2.98583 C 54.9000 %
299 17-02-2017 00:00:00 5.05167 C 53.0917 %
300 18-02-2017 00:00:00 5.56917 C 38.1000 %
Sensor: Nr:Datum:Temp:Feuchte:
Aussen-T/F 301 19-02-2017 00:00:00 2.74417 C 39.9417 %
302 20-02-2017 00:00:00 7.83667 C 30.5667 %
303 21-02-2017 00:00:00 9.77417 C 33.2917 %
304 22-02-2017 00:00:00 10.86167 C 22.7083 %
305 23-02-2017 00:00:00 8.95167 C 22.1250 %
306 24-02-2017 00:00:00 4.4525 C 26.0917 %
307 25-02-2017 00:00:00 3.06333 C 34.4667 %
308 26-02-2017 00:00:00 8.2025 C 22.5667 %
309 27-02-2017 00:00:00 10.56417 C 22.7417 %
310 28-02-2017 00:00:00 5.03667 C 25.5167 %
311 01-03-2017 00:00:00 6.07333 C 27.2250 %
312 02-03-2017 00:00:00 7.615 C 21.8417 %
313 03-03-2017 00:00:00 5.64417 C 27.7417 %
314 04-03-2017 00:00:00 10.41667 C 24.1750 %
315 05-03-2017 00:00:00 6.48667 C 29.1917 %
316 06-03-2017 00:00:00 5.80083 C 30.7583 %
317 07-03-2017 00:00:00 5.375 C 37.1500 %
318 08-03-2017 00:00:00 4.1425 C 57.5333 %
319 09-03-2017 00:00:00 10.71 C 40.6917 %
320 10-03-2017 00:00:00 7.1775 C 21.1917 %
321 11-03-2017 00:00:00 5.8775 C 29.0333 %
322 12-03-2017 00:00:00 5.82167 C 27.9833 %
323 13-03-2017 00:00:00 5.775 C 26.7667 %
324 14-03-2017 00:00:00 8.80333 C 26.7000 %
325 15-03-2017 00:00:00 10.8 C 22.7333 %
Sensor: Nr:Datum:Temp:Feuchte:
Aussen-T/F 326 16-03-2017 00:00:00 7.71667 C 32.6833 %
327 17-03-2017 00:00:00 8.33917 C 22.4167 %
328 18-03-2017 00:00:00 8.97583 C 28.3167 %
329 19-03-2017 00:00:00 12.0025 C 29.0167 %
330 20-03-2017 00:00:00 11.53917 C 20.0000 %
331 21-03-2017 00:00:00 8.86 C 25.1667 %
332 22-03-2017 00:00:00 5.1675 C 32.8583 %
333 23-03-2017 00:00:00 8.915 C 31.3000 %
334 24-03-2017 00:00:00 9.54583 C 23.0250 %
335 25-03-2017 00:00:00 9.54417 C 26.8417 %
336 26-03-2017 00:00:00 9.08696 C 20.0000 %
337 27-03-2017 00:00:00 8.34583 C 26.6083 %
338 28-03-2017 00:00:00 9.97417 C 22.6583 %
339 29-03-2017 00:00:00 12.77833 C 22.9417 %
340 30-03-2017 00:00:00 14.22417 C 22.9833 %
341 31-03-2017 00:00:00 13.35333 C 29.3000 %
342 01-04-2017 00:00:00 13.83417 C 20.9000 %
343 02-04-2017 00:00:00 11.94167 C 24.9167 %
344 03-04-2017 00:00:00 10.62 C 26.7750 %
345 04-04-2017 00:00:00 9.20333 C 28.3417 %
346 05-04-2017 00:00:00 8.82333 C 22.4667 %
347 06-04-2017 00:00:00 9.21083 C 20.3667 %
348 07-04-2017 00:00:00 10.40583 C 23.0667 %
349 08-04-2017 00:00:00 13.42167 C 20.0917 %
350 09-04-2017 00:00:00 12.59 C 28.2250 %
Sensor: Nr:Datum:Temp:Feuchte:
Aussen-T/F 351 10-04-2017 00:00:00 10.98833 C 23.4333 %
352 11-04-2017 00:00:00 10.6675 C 20.0000 %
353 12-04-2017 00:00:00 11.54667 C 20.0083 %
354 13-04-2017 00:00:00 12.27417 C 20.7667 %
355 14-04-2017 00:00:00 10.30417 C 22.3083 %
356 15-04-2017 00:00:00 8.6675 C 21.4500 %
357 16-04-2017 00:00:00 7.34417 C 23.7417 %
358 17-04-2017 00:00:00 6.805 C 28.0667 %
359 18-04-2017 00:00:00 5.69667 C 20.6333 %
360 19-04-2017 00:00:00 4.65667 C 28.3500 %
361 20-04-2017 00:00:00 6.6825 C 23.4667 %
362 21-04-2017 00:00:00 8.16917 C 22.1500 %
363 22-04-2017 00:00:00 9.88 C 20.0000 %
364 23-04-2017 00:00:00 7.65 C 20.5333 %
365 24-04-2017 00:00:00 6.5875 C 27.3250 %
Sensor: Nr:Datum:Temp:Feuchte:
G-T/H 1 25-04-2016 00:00:00 9.705 C 62.8083 %
2 26-04-2016 00:00:00 9.39833 C 63.1083 %
3 27-04-2016 00:00:00 9.11583 C 62.9500 %
4 28-04-2016 00:00:00 9.37917 C 62.3333 %
5 29-04-2016 00:00:00 10.05167 C 61.3083 %
6 30-04-2016 00:00:00 10.66583 C 63.3250 %
7 01-05-2016 00:00:00 10.81833 C 66.3917 %
8 02-05-2016 00:00:00 11.39917 C 66.7083 %
9 03-05-2016 00:00:00 12.1925 C 66.1750 %
10 04-05-2016 00:00:00 11.66667 C 60.8083 %
11 05-05-2016 00:00:00 12.47917 C 58.2167 %
12 06-05-2016 00:00:00 13.25583 C 62.6333 %
13 07-05-2016 00:00:00 15.64667 C 58.6167 %
14 08-05-2016 00:00:00 16.73667 C 55.0000 %
15 09-05-2016 00:00:00 17.65083 C 55.0000 %
16 10-05-2016 00:00:00 16.9875 C 60.4583 %
17 11-05-2016 00:00:00 17.78917 C 59.5583 %
18 12-05-2016 00:00:00 18.00333 C 57.3333 %
19 13-05-2016 00:00:00 16.81833 C 62.8500 %
20 14-05-2016 00:00:00 15.055 C 60.3667 %
21 15-05-2016 00:00:00 13.6825 C 58.5667 %
22 16-05-2016 00:00:00 13.37833 C 57.1917 %
23 17-05-2016 00:00:00 14.11583 C 54.8500 %
24 18-05-2016 00:00:00 15.44083 C 56.8667 %
25 19-05-2016 00:00:00 15.42417 C 61.6833 %
Sensor: Nr:Datum:Temp:Feuchte:
G-T/H 26 20-05-2016 00:00:00 15.11917 C 63.5583 %
27 21-05-2016 00:00:00 17.11417 C 61.2417 %
28 22-05-2016 00:00:00 17.1375 C 63.3083 %
29 23-05-2016 00:00:00 16.6675 C 65.4333 %
30 24-05-2016 00:00:00 15.11083 C 66.7500 %
31 25-05-2016 00:00:00 14.5625 C 67.5333 %
32 26-05-2016 00:00:00 15.84083 C 64.6833 %
33 27-05-2016 00:00:00 16.43417 C 67.0667 %
34 28-05-2016 00:00:00 16.33333 C 69.2250 %
35 29-05-2016 00:00:00 16.47 C 70.2000 %
36 30-05-2016 00:00:00 16.7675 C 71.2917 %
37 31-05-2016 00:00:00 17.39032 C 69.3145 %
38 01-06-2016 00:00:00 16.90764 C 69.8090 %
39 02-06-2016 00:00:00 16.60486 C 71.1215 %
40 03-06-2016 00:00:00 16.82674 C 71.6979 %
41 04-06-2016 00:00:00 17.00764 C 72.5278 %
42 05-06-2016 00:00:00 17.47083 C 72.4375 %
43 06-06-2016 00:00:00 19.17188 C 71.5417 %
44 07-06-2016 00:00:00 19.49514 C 71.1979 %
45 08-06-2016 00:00:00 19.99896 C 67.3368 %
46 09-06-2016 00:00:00 19.07396 C 58.3681 %
47 10-06-2016 00:00:00 18.28403 C 60.7847 %
48 11-06-2016 00:00:00 18.9066 C 59.1458 %
49 12-06-2016 00:00:00 18.61424 C 63.5208 %
50 13-06-2016 00:00:00 17.83333 C 67.1563 %
Sensor: Nr:Datum:Temp:Feuchte:
G-T/H 51 14-06-2016 00:00:00 17.39931 C 68.4757 %
52 15-06-2016 00:00:00 17.24583 C 68.5903 %
53 16-06-2016 00:00:00 16.24236 C 71.1944 %
54 17-06-2016 00:00:00 16.34861 C 71.3090 %
55 18-06-2016 00:00:00 16.23056 C 71.5174 %
56 19-06-2016 00:00:00 16.85556 C 67.8368 %
57 20-06-2016 00:00:00 16.76798 C 58.9298 %
58 21-06-2016 00:00:00 18.16552 C 65.3017 %
59 22-06-2016 00:00:00 18.4725 C 69.0917 %
60 23-06-2016 00:00:00 19.365 C 71.3250 %
61 24-06-2016 00:00:00 20.41417 C 72.4667 %
62 25-06-2016 00:00:00 19.32667 C 72.2667 %
63 26-06-2016 00:00:00 17.69417 C 71.1667 %
64 27-06-2016 00:00:00 17.605 C 66.4750 %
65 28-06-2016 00:00:00 19.10167 C 64.6917 %
66 29-06-2016 00:00:00 19.85417 C 57.5417 %
67 30-06-2016 00:00:00 19.8875 C 60.6333 %
68 01-07-2016 00:00:00 20.32 C 62.7500 %
69 02-07-2016 00:00:00 19.3525 C 63.5667 %
70 03-07-2016 00:00:00 17.94167 C 64.7167 %
71 04-07-2016 00:00:00 18.07917 C 66.9333 %
72 05-07-2016 00:00:00 19.50833 C 65.1500 %
73 06-07-2016 00:00:00 18.59333 C 64.1000 %
74 07-07-2016 00:00:00 18.89 C 58.9500 %
75 08-07-2016 00:00:00 20.49583 C 59.9917 %
Sensor: Nr:Datum:Temp:Feuchte:
G-T/H 76 09-07-2016 00:00:00 20.265 C 63.4500 %
77 10-07-2016 00:00:00 20.23583 C 66.0667 %
78 11-07-2016 00:00:00 21.90583 C 60.9500 %
79 12-07-2016 00:00:00 21.28583 C 56.5333 %
80 13-07-2016 00:00:00 19.58583 C 61.2667 %
81 14-07-2016 00:00:00 18.12833 C 63.5000 %
82 15-07-2016 00:00:00 17.85833 C 64.4333 %
83 16-07-2016 00:00:00 17.93083 C 65.6917 %
84 17-07-2016 00:00:00 20.08 C 64.7667 %
85 18-07-2016 00:00:00 21.79667 C 59.9333 %
86 19-07-2016 00:00:00 22.34917 C 60.7583 %
87 20-07-2016 00:00:00 21.63333 C 64.3000 %
88 21-07-2016 00:00:00 21.57583 C 66.2500 %
89 22-07-2016 00:00:00 20.68417 C 68.0833 %
90 23-07-2016 00:00:00 20.68833 C 68.8750 %
91 24-07-2016 00:00:00 20.48333 C 69.4167 %
92 25-07-2016 00:00:00 20.91333 C 69.4000 %
93 26-07-2016 00:00:00 20.91083 C 69.4500 %
94 27-07-2016 00:00:00 20.35 C 69.0333 %
95 28-07-2016 00:00:00 20.44667 C 69.0333 %
96 29-07-2016 00:00:00 20.34167 C 68.9833 %
97 30-07-2016 00:00:00 20.43833 C 68.3250 %
98 31-07-2016 00:00:00 20.0325 C 68.5917 %
99 01-08-2016 00:00:00 19.39333 C 58.7417 %
100 02-08-2016 00:00:00 19.16833 C 63.6417 %
Sensor: Nr:Datum:Temp:Feuchte:
G-T/H 101 03-08-2016 00:00:00 18.67333 C 68.2083 %
102 04-08-2016 00:00:00 18.74667 C 70.3583 %
103 05-08-2016 00:00:00 18.29667 C 70.3333 %
104 06-08-2016 00:00:00 19.07417 C 69.3750 %
105 07-08-2016 00:00:00 19.03 C 69.0833 %
106 08-08-2016 00:00:00 20.345 C 62.8750 %
107 09-08-2016 00:00:00 19.3975 C 57.0333 %
108 10-08-2016 00:00:00 18.12167 C 59.1917 %
109 11-08-2016 00:00:00 16.77899 C 61.9748 %
110 12-08-2016 00:00:00 17.08917 C 67.0000 %
111 13-08-2016 00:00:00 18.70167 C 66.4667 %
112 14-08-2016 00:00:00 19.23583 C 66.2917 %
113 15-08-2016 00:00:00 19.80833 C 63.8583 %
114 16-08-2016 00:00:00 20.05583 C 57.9917 %
115 17-08-2016 00:00:00 19.5975 C 59.9500 %
116 18-08-2016 00:00:00 19.10667 C 62.0250 %
117 19-08-2016 00:00:00 19.285 C 65.6833 %
118 20-08-2016 00:00:00 19.33917 C 67.0167 %
119 21-08-2016 00:00:00 18.56083 C 67.8500 %
120 22-08-2016 00:00:00 18.2 C 68.1000 %
121 23-08-2016 00:00:00 18.51083 C 68.4750 %
122 24-08-2016 00:00:00 20.7375 C 63.8417 %
123 25-08-2016 00:00:00 21.7675 C 61.5667 %
124 26-08-2016 00:00:00 21.88833 C 64.2083 %
125 27-08-2016 00:00:00 21.44167 C 67.6000 %
Sensor: Nr:Datum:Temp:Feuchte:
G-T/H 126 28-08-2016 00:00:00 21.2675 C 68.1333 %
127 29-08-2016 00:00:00 20.725 C 67.0750 %
128 30-08-2016 00:00:00 19.75833 C 63.6083 %
129 31-08-2016 00:00:00 19.81833 C 59.3500 %
130 01-09-2016 00:00:00 20.415 C 61.3167 %
131 02-09-2016 00:00:00 20.5325 C 60.0417 %
132 03-09-2016 00:00:00 21.2775 C 58.3833 %
133 04-09-2016 00:00:00 20.23417 C 62.0333 %
134 05-09-2016 00:00:00 19.63 C 61.6750 %
135 06-09-2016 00:00:00 19.45667 C 59.8000 %
136 07-09-2016 00:00:00 17.9625 C 62.8833 %
137 08-09-2016 00:00:00 20.22417 C 62.2667 %
138 09-09-2016 00:00:00 20.395 C 59.8500 %
139 10-09-2016 00:00:00 19.37583 C 63.5083 %
140 11-09-2016 00:00:00 19.84167 C 61.8500 %
141 12-09-2016 00:00:00 19.2425 C 63.9750 %
142 13-09-2016 00:00:00 19.18917 C 67.2250 %
143 14-09-2016 00:00:00 19.21167 C 67.7167 %
144 15-09-2016 00:00:00 20.69 C 62.9250 %
145 16-09-2016 00:00:00 19.985 C 62.3917 %
146 17-09-2016 00:00:00 18.71583 C 62.1417 %
147 18-09-2016 00:00:00 18.4775 C 65.9583 %
148 19-09-2016 00:00:00 18.15833 C 63.7833 %
149 20-09-2016 00:00:00 17.68667 C 65.4583 %
150 21-09-2016 00:00:00 16.9825 C 64.3250 %
Sensor: Nr:Datum:Temp:Feuchte:
G-T/H 151 22-09-2016 00:00:00 16.06167 C 59.4417 %
152 23-09-2016 00:00:00 15.82583 C 65.3667 %
153 24-09-2016 00:00:00 15.64417 C 67.9583 %
154 25-09-2016 00:00:00 15.26917 C 68.1167 %
155 26-09-2016 00:00:00 16.33 C 68.2917 %
156 27-09-2016 00:00:00 15.98083 C 69.3167 %
157 28-09-2016 00:00:00 16.32 C 68.9750 %
158 29-09-2016 00:00:00 16.83 C 70.3417 %
159 30-09-2016 00:00:00 17.00583 C 70.6167 %
160 01-10-2016 00:00:00 16.32667 C 71.0000 %
161 02-10-2016 00:00:00 15.67333 C 71.6083 %
162 03-10-2016 00:00:00 15.18 C 72.4000 %
163 04-10-2016 00:00:00 14.88 C 72.3167 %
164 05-10-2016 00:00:00 12.96083 C 60.0750 %
165 06-10-2016 00:00:00 12.69583 C 64.3417 %
166 07-10-2016 00:00:00 13.35833 C 70.4250 %
167 08-10-2016 00:00:00 13.4975 C 71.5583 %
168 09-10-2016 00:00:00 13.15583 C 69.0833 %
169 10-10-2016 00:00:00 12.26667 C 65.6583 %
170 11-10-2016 00:00:00 12.15083 C 68.7417 %
171 12-10-2016 00:00:00 12.37167 C 69.5583 %
172 13-10-2016 00:00:00 11.78 C 63.9417 %
173 14-10-2016 00:00:00 12.04583 C 65.1000 %
174 15-10-2016 00:00:00 12.9775 C 69.8500 %
175 16-10-2016 00:00:00 12.80667 C 68.1833 %
Sensor: Nr:Datum:Temp:Feuchte:
G-T/H 176 17-10-2016 00:00:00 12.835 C 72.4250 %
177 18-10-2016 00:00:00 13.08 C 73.2750 %
178 19-10-2016 00:00:00 12.90917 C 72.6917 %
179 20-10-2016 00:00:00 12.49167 C 72.9250 %
180 21-10-2016 00:00:00 12.16917 C 72.9667 %
181 22-10-2016 00:00:00 11.97167 C 73.1167 %
182 23-10-2016 00:00:00 11.56167 C 71.1250 %
183 24-10-2016 00:00:00 11.85333 C 73.8167 %
184 25-10-2016 00:00:00 12.67417 C 75.2000 %
185 26-10-2016 00:00:00 12.92083 C 72.7667 %
186 27-10-2016 00:00:00 11.9975 C 70.7667 %
187 28-10-2016 00:00:00 12.79417 C 71.9083 %
188 29-10-2016 00:00:00 13.4925 C 73.2500 %
189 30-10-2016 00:00:00 12.6816 C 71.9200 %
190 31-10-2016 00:00:00 11.75083 C 70.0667 %
191 01-11-2016 00:00:00 11.04417 C 69.4750 %
192 02-11-2016 00:00:00 11.27917 C 71.5500 %
193 03-11-2016 00:00:00 10.86 C 69.9917 %
194 04-11-2016 00:00:00 10.0325 C 67.5750 %
195 05-11-2016 00:00:00 10.58917 C 71.7750 %
196 06-11-2016 00:00:00 10.1525 C 69.2083 %
197 07-11-2016 00:00:00 9.85 C 68.7833 %
198 08-11-2016 00:00:00 9.42417 C 66.2417 %
199 09-11-2016 00:00:00 8.82583 C 66.7333 %
200 10-11-2016 00:00:00 9.30167 C 70.3000 %
Sensor: Nr:Datum:Temp:Feuchte:
G-T/H 201 11-11-2016 00:00:00 9.65417 C 71.9000 %
202 12-11-2016 00:00:00 8.685 C 64.9333 %
203 13-11-2016 00:00:00 8.31083 C 64.6083 %
204 14-11-2016 00:00:00 7.62917 C 61.3083 %
205 15-11-2016 00:00:00 8.05833 C 68.3083 %
206 16-11-2016 00:00:00 9.605 C 73.2917 %
207 17-11-2016 00:00:00 10.72917 C 74.0000 %
208 18-11-2016 00:00:00 11.2175 C 72.3333 %
209 19-11-2016 00:00:00 9.86333 C 67.3833 %
210 20-11-2016 00:00:00 9.69583 C 70.2250 %
211 21-11-2016 00:00:00 10.8675 C 72.8417 %
212 22-11-2016 00:00:00 11.305 C 73.8750 %
213 23-11-2016 00:00:00 11.27583 C 74.1333 %
214 24-11-2016 00:00:00 11.035 C 74.8083 %
215 25-11-2016 00:00:00 10.7 C 72.8750 %
216 26-11-2016 00:00:00 10.5825 C 71.8333 %
217 27-11-2016 00:00:00 10.20167 C 70.9917 %
218 28-11-2016 00:00:00 8.60417 C 61.3417 %
219 29-11-2016 00:00:00 7.215 C 58.6917 %
220 30-11-2016 00:00:00 5.98167 C 59.2667 %
221 01-12-2016 00:00:00 3.9525 C 66.1500 %
222 02-12-2016 00:00:00 8.02083 C 70.3667 %
223 03-12-2016 00:00:00 7.42417 C 63.9833 %
224 04-12-2016 00:00:00 6.275 C 61.7083 %
225 05-12-2016 00:00:00 5.36667 C 64.7667 %
Sensor: Nr:Datum:Temp:Feuchte:
G-T/H 226 06-12-2016 00:00:00 4.82967 C 64.3626 %
227 07-12-2016 00:00:00 5.38252 C 68.3883 %
228 08-12-2016 00:00:00 5.9125 C 69.6000 %
229 09-12-2016 00:00:00 6.99833 C 71.6333 %
230 10-12-2016 00:00:00 7.755 C 72.6417 %
231 11-12-2016 00:00:00 8.39667 C 74.1583 %
232 12-12-2016 00:00:00 9.10083 C 74.1333 %
233 13-12-2016 00:00:00 8.56083 C 71.4833 %
234 14-12-2016 00:00:00 8.81583 C 74.0417 %
235 15-12-2016 00:00:00 9.39 C 74.3000 %
236 16-12-2016 00:00:00 9.12417 C 69.5333 %
237 17-12-2016 00:00:00 7.19138 C 66.8793 %
238 18-12-2016 00:00:00 6.47667 C 73.8167 %
239 19-12-2016 00:00:00 6.53917 C 69.9833 %
240 20-12-2016 00:00:00 7.37 C 63.5167 %
241 21-12-2016 00:00:00 6.99 C 64.7917 %
242 22-12-2016 00:00:00 7.68917 C 69.0917 %
243 23-12-2016 00:00:00 7.73917 C 71.5917 %
244 24-12-2016 00:00:00 8.2975 C 72.4083 %
245 25-12-2016 00:00:00 8.90417 C 73.3417 %
246 26-12-2016 00:00:00 9.52917 C 72.0250 %
247 27-12-2016 00:00:00 8.22333 C 68.1667 %
248 28-12-2016 00:00:00 8.0975 C 69.3167 %
249 29-12-2016 00:00:00 6.70583 C 61.8833 %
250 30-12-2016 00:00:00 5.99833 C 63.3083 %
Sensor: Nr:Datum:Temp:Feuchte:
G-T/H 251 31-12-2016 00:00:00 5.83083 C 62.2667 %
252 01-01-2017 00:00:00 5.44917 C 64.1833 %
253 02-01-2017 00:00:00 5.875 C 67.6500 %
254 03-01-2017 00:00:00 6.26833 C 69.1333 %
255 04-01-2017 00:00:00 6.87333 C 70.5333 %
256 05-01-2017 00:00:00 6.42167 C 64.7417 %
257 06-01-2017 00:00:00 5.2175 C 62.1250 %
258 07-01-2017 00:00:00 5.225 C 61.2333 %
259 08-01-2017 00:00:00 5.37083 C 67.6667 %
260 09-01-2017 00:00:00 5.805 C 70.2583 %
261 10-01-2017 00:00:00 6.215 C 69.9833 %
262 11-01-2017 00:00:00 6.85417 C 73.1167 %
263 12-01-2017 00:00:00 7.36667 C 72.3333 %
264 13-01-2017 00:00:00 7.38917 C 68.9917 %
265 14-01-2017 00:00:00 6.96667 C 66.6000 %
266 15-01-2017 00:00:00 6.63083 C 66.1917 %
267 16-01-2017 00:00:00 5.80917 C 64.9167 %
268 17-01-2017 00:00:00 5.4625 C 65.3000 %
269 18-01-2017 00:00:00 5.16083 C 63.5417 %
270 19-01-2017 00:00:00 4.74667 C 62.7667 %
271 20-01-2017 00:00:00 4.44583 C 61.4250 %
272 21-01-2017 00:00:00 4.46917 C 61.4667 %
273 22-01-2017 00:00:00 6.90667 C 56.2500 %
274 23-01-2017 00:00:00 4.80167 C 59.9750 %
275 24-01-2017 00:00:00 4.74333 C 66.7000 %
Sensor: Nr:Datum:Temp:Feuchte:
G-T/H 276 25-01-2017 00:00:00 5.13697 C 66.5546 %
277 26-01-2017 00:00:00 4.95 C 66.4333 %
278 27-01-2017 00:00:00 4.87667 C 64.0167 %
279 28-01-2017 00:00:00 4.965 C 64.2417 %
280 29-01-2017 00:00:00 5.46167 C 67.2750 %
281 30-01-2017 00:00:00 6.3575 C 70.0750 %
282 31-01-2017 00:00:00 7.135 C 70.9417 %
283 01-02-2017 00:00:00 7.0975 C 69.4500 %
284 02-02-2017 00:00:00 7.63083 C 71.6000 %
285 03-02-2017 00:00:00 7.80583 C 71.7917 %
286 04-02-2017 00:00:00 7.86667 C 73.2833 %
287 05-02-2017 00:00:00 7.52167 C 72.1917 %
288 06-02-2017 00:00:00 7.44667 C 71.3500 %
289 07-02-2017 00:00:00 7.65917 C 69.1583 %
290 08-02-2017 00:00:00 7.745 C 67.0667 %
291 09-02-2017 00:00:00 6.61083 C 60.3750 %
292 10-02-2017 00:00:00 6.26583 C 62.6250 %
293 11-02-2017 00:00:00 6.50167 C 66.3417 %
294 12-02-2017 00:00:00 6.90333 C 69.8583 %
295 13-02-2017 00:00:00 6.77417 C 66.2250 %
296 14-02-2017 00:00:00 6.34667 C 63.3750 %
297 15-02-2017 00:00:00 6.06333 C 64.3167 %
298 16-02-2017 00:00:00 6.4425 C 67.4583 %
299 17-02-2017 00:00:00 7.16417 C 70.9167 %
300 18-02-2017 00:00:00 7.8825 C 71.6500 %
Sensor: Nr:Datum:Temp:Feuchte:
G-T/H 301 19-02-2017 00:00:00 6.91667 C 66.6917 %
302 20-02-2017 00:00:00 7.93417 C 71.2667 %
303 21-02-2017 00:00:00 9.10333 C 73.0000 %
304 22-02-2017 00:00:00 9.84667 C 73.5750 %
305 23-02-2017 00:00:00 10.02917 C 72.3500 %
306 24-02-2017 00:00:00 9.025 C 66.0583 %
307 25-02-2017 00:00:00 7.8125 C 64.1750 %
308 26-02-2017 00:00:00 8.2975 C 69.2667 %
309 27-02-2017 00:00:00 9.63917 C 70.5750 %
310 28-02-2017 00:00:00 9.33 C 66.9583 %
311 01-03-2017 00:00:00 8.60583 C 69.5417 %
312 02-03-2017 00:00:00 8.9175 C 65.6500 %
313 03-03-2017 00:00:00 8.58667 C 65.2583 %
314 04-03-2017 00:00:00 9.72083 C 67.1417 %
315 05-03-2017 00:00:00 9.9025 C 68.5167 %
316 06-03-2017 00:00:00 9.1775 C 69.4333 %
317 07-03-2017 00:00:00 8.97833 C 70.7333 %
318 08-03-2017 00:00:00 8.28333 C 70.1333 %
319 09-03-2017 00:00:00 9.54333 C 71.3083 %
320 10-03-2017 00:00:00 9.94 C 66.3417 %
321 11-03-2017 00:00:00 9.4 C 61.6667 %
322 12-03-2017 00:00:00 9.37083 C 56.6667 %
323 13-03-2017 00:00:00 9.06083 C 61.4333 %
324 14-03-2017 00:00:00 9.58917 C 65.5667 %
325 15-03-2017 00:00:00 10.38083 C 67.1833 %
Sensor: Nr:Datum:Temp:Feuchte:
G-T/H 326 16-03-2017 00:00:00 9.89833 C 64.6750 %
327 17-03-2017 00:00:00 9.92917 C 66.9833 %
328 18-03-2017 00:00:00 10.04833 C 66.3167 %
329 19-03-2017 00:00:00 10.80333 C 69.8417 %
330 20-03-2017 00:00:00 11.3975 C 70.0000 %
331 21-03-2017 00:00:00 11.28667 C 69.3000 %
332 22-03-2017 00:00:00 9.84 C 63.8000 %
333 23-03-2017 00:00:00 10.27083 C 66.0750 %
334 24-03-2017 00:00:00 10.7825 C 62.7500 %
335 25-03-2017 00:00:00 10.76167 C 57.7333 %
336 26-03-2017 00:00:00 10.54783 C 58.5826 %
337 27-03-2017 00:00:00 10.2775 C 50.5417 %
338 28-03-2017 00:00:00 11.49667 C 53.5167 %
339 29-03-2017 00:00:00 12.4025 C 60.0000 %
340 30-03-2017 00:00:00 13.8 C 58.8333 %
341 31-03-2017 00:00:00 13.9 C 55.5083 %
342 01-04-2017 00:00:00 13.5225 C 61.1333 %
343 02-04-2017 00:00:00 13.045 C 62.0500 %
344 03-04-2017 00:00:00 12.37917 C 61.7583 %
345 04-04-2017 00:00:00 11.70917 C 61.7250 %
346 05-04-2017 00:00:00 11.2225 C 60.3000 %
347 06-04-2017 00:00:00 11.25083 C 61.8833 %
348 07-04-2017 00:00:00 11.30833 C 61.5667 %
349 08-04-2017 00:00:00 12.10917 C 64.3167 %
350 09-04-2017 00:00:00 11.93083 C 63.3250 %
Sensor: Nr:Datum:Temp:Feuchte:
G-T/H 351 10-04-2017 00:00:00 12.2625 C 64.3417 %
352 11-04-2017 00:00:00 11.93333 C 61.3750 %
353 12-04-2017 00:00:00 11.73417 C 62.1250 %
354 13-04-2017 00:00:00 12.4775 C 62.8750 %
355 14-04-2017 00:00:00 12.10583 C 60.6583 %
356 15-04-2017 00:00:00 11.93917 C 62.9917 %
357 16-04-2017 00:00:00 11.1475 C 62.5750 %
358 17-04-2017 00:00:00 10.5075 C 62.2583 %
359 18-04-2017 00:00:00 9.84833 C 61.1750 %
360 19-04-2017 00:00:00 9.13917 C 59.2667 %
361 20-04-2017 00:00:00 8.37167 C 53.2417 %
362 21-04-2017 00:00:00 9.44167 C 57.5750 %
363 22-04-2017 00:00:00 10.7925 C 61.3833 %
364 23-04-2017 00:00:00 10.56417 C 59.6333 %
365 24-04-2017 00:00:00 10.66583 C 57.9750 %

Maximal/Minimal-Werte vom 25.04.2016 - 24.04.2017

Sensor Min Max Avg
Temp
(Aussen-T/F)
-18.7 °C
20-06-2016  11:38:17
42.4 °C
23-06-2016  18:32:17
10.88 °C
Feuchte
(Aussen-T/F)
20 %
25-04-2016  11:19:17
75 %
01-11-2016  00:41:17
34.32 %
Temp
(G-T/H)
-6 °C
01-12-2016  10:32:18
26.1 °C
25-08-2016  16:25:17
13.37 °C
Feuchte
(G-T/H)
27 %
27-03-2017  16:04:17
76 %
25-10-2016  12:29:17
66.17 %

Die Daten stammen von einer Davis Vantage Pro 2 Wetter-Station und werden unter Linux mit der Software wview2wettercgi und aufbereitet. Alle Angaben erfolgen ohne Gewähr für ihre Vollständigkeit oder Richtigkeit.
Kontakt: Rainer Krienke krienke@uni-koblenz.de . Meine Webseiten an der Uni Koblenz oder privat.
Version: $Revision: 0.78 $